When you browse on this site, cookies collect data to enhance your experience and personalize the content and advertising you see.
Visit our Privacy Policy to learn more. By continuing to use the site, you agree to this use of cookies and data.
  • In Österreich
  • Länderverzeichnis
  • Für 7 Tage
  • Wassertemperatur
  • Wetterkarte
  • News
  • Widgets
  • user-avatar
    Anmelden

    Stündliche Wetter Shkoder

    Heute, 7 Juni, Sonntag

    Zeit Temperatur Niederschläge Wind Luftdruck Luftfeuchtigkeit
    00:00 +16°C° 0 mm 1 m/S 734 mmHg 90%
    01:00 +15°C° 0 mm 1 m/S 734 mmHg 91%
    02:00 +15°C° 0 mm 1 m/S 735 mmHg 91%
    03:00 +15°C° 0 mm 1 m/S 735 mmHg 92%
    04:00 +15°C° 0 mm 1 m/S 735 mmHg 93%
    05:00 +18°C° 0 mm 1 m/S 735 mmHg 89%
    06:00 +19°C° 0 mm 1 m/S 735 mmHg 86%
    07:00 +20°C° 0 mm 1 m/S 735 mmHg 83%
    08:00 +21°C° 0 mm 1 m/S 735 mmHg 79%
    09:00 +22°C° 0 mm 1 m/S 735 mmHg 75%
    10:00 +23°C° 0 mm 2 m/S 735 mmHg 71%
    11:00 +23°C° 0 mm 2 m/S 735 mmHg 70%
    12:00 +24°C° 0 mm 2 m/S 735 mmHg 68%
    13:00 +24°C° 0 mm 3 m/S 735 mmHg 66%
    14:00 +24°C° 0 mm 3 m/S 735 mmHg 67%
    15:00 +24°C° 0 mm 3 m/S 735 mmHg 67%
    16:00 +24°C° 0 mm 3 m/S 735 mmHg 67%
    17:00 +21°C° 0 mm 2 m/S 735 mmHg 73%
    18:00 +20°C° 0 mm 2 m/S 735 mmHg 79%
    19:00 +19°C° 0 mm 1 m/S 735 mmHg 85%
    20:00 +19°C° 0 mm 1 m/S 735 mmHg 86%
    21:00 +18°C° 0 mm 1 m/S 736 mmHg 87%
    22:00 +18°C° 0 mm 1 m/S 736 mmHg 88%
    23:00 +16°C° 0 mm 1 m/S 736 mmHg 88%

    Morgen, 8 Juni, Montag

    Zeit Temperatur Niederschläge Wind Luftdruck Luftfeuchtigkeit
    00:00 +16°C° 0 mm 1 m/S 735 mmHg 88%
    01:00 +16°C° 0 mm 1 m/S 735 mmHg 88%
    02:00 +16°C° 0 mm 1 m/S 735 mmHg 87%
    03:00 +16°C° 0 mm 1 m/S 735 mmHg 86%
    04:00 +16°C° 0 mm 1 m/S 735 mmHg 84%
    05:00 +19°C° 0 mm 1 m/S 735 mmHg 81%
    06:00 +20°C° 0 mm 1 m/S 735 mmHg 78%
    07:00 +21°C° 0 mm 1 m/S 735 mmHg 75%
    08:00 +23°C° 0.3 mm 1 m/S 735 mmHg 72%
    09:00 +24°C° 0.3 mm 1 m/S 735 mmHg 69%
    10:00 +25°C° 0.3 mm 2 m/S 735 mmHg 66%
    11:00 +25°C° 0.5 mm 2 m/S 735 mmHg 66%
    12:00 +25°C° 0.5 mm 2 m/S 735 mmHg 66%
    13:00 +25°C° 0.5 mm 3 m/S 735 mmHg 65%
    14:00 +25°C° 0.2 mm 3 m/S 735 mmHg 65%
    15:00 +25°C° 0.2 mm 3 m/S 735 mmHg 65%
    16:00 +25°C° 0.2 mm 2 m/S 735 mmHg 64%
    17:00 +23°C° 0.1 mm 2 m/S 735 mmHg 70%
    18:00 +22°C° 0.1 mm 1 m/S 735 mmHg 77%
    19:00 +20°C° 0.1 mm 1 m/S 735 mmHg 83%
    20:00 +20°C° 0.1 mm 1 m/S 735 mmHg 83%
    21:00 +19°C° 0.1 mm 1 m/S 735 mmHg 84%
    22:00 +19°C° 0.1 mm 1 m/S 735 mmHg 84%
    23:00 +18°C° 0.3 mm 1 m/S 735 mmHg 85%

    übermorgen, 9 Juni, Dienstag

    Zeit Temperatur Niederschläge Wind Luftdruck Luftfeuchtigkeit
    00:00 +18°C° 0.3 mm 1 m/S 735 mmHg 85%
    01:00 +18°C° 0.3 mm 1 m/S 735 mmHg 86%
    02:00 +18°C° 0.2 mm 1 m/S 735 mmHg 86%
    03:00 +18°C° 0.2 mm 1 m/S 735 mmHg 85%
    04:00 +18°C° 0.2 mm 1 m/S 735 mmHg 85%
    05:00 +19°C° 0.1 mm 1 m/S 735 mmHg 81%
    06:00 +21°C° 0.1 mm 1 m/S 735 mmHg 77%
    07:00 +22°C° 0.1 mm 1 m/S 735 mmHg 73%
    08:00 +24°C° 0.4 mm 1 m/S 735 mmHg 69%
    09:00 +25°C° 0.4 mm 1 m/S 735 mmHg 65%
    10:00 +26°C° 0.4 mm 1 m/S 735 mmHg 61%
    11:00 +26°C° 0.6 mm 2 m/S 735 mmHg 60%
    12:00 +27°C° 0.6 mm 2 m/S 735 mmHg 59%
    13:00 +27°C° 0.6 mm 3 m/S 735 mmHg 58%
    14:00 +26°C° 0.4 mm 2 m/S 735 mmHg 59%
    15:00 +26°C° 0.4 mm 2 m/S 735 mmHg 61%
    16:00 +25°C° 0.4 mm 2 m/S 735 mmHg 62%
    17:00 +24°C° 0.1 mm 2 m/S 735 mmHg 68%
    18:00 +22°C° 0.1 mm 1 m/S 735 mmHg 73%
    19:00 +21°C° 0.1 mm 1 m/S 735 mmHg 78%
    20:00 +20°C° 0 mm 1 m/S 736 mmHg 79%
    21:00 +19°C° 0 mm 1 m/S 736 mmHg 79%
    22:00 +17°C° 0 mm 0 m/S 736 mmHg 80%
    23:00 +18°C° 0.2 mm 1 m/S 736 mmHg 80%

    10 Juni, Mittwoch

    Zeit Temperatur Niederschläge Wind Luftdruck Luftfeuchtigkeit
    00:00 +18°C° 0.2 mm 1 m/S 736 mmHg 81%
    01:00 +18°C° 0.2 mm 1 m/S 736 mmHg 82%
    02:00 +18°C° 0.1 mm 1 m/S 736 mmHg 83%
    03:00 +18°C° 0.1 mm 1 m/S 736 mmHg 83%
    04:00 +16°C° 0.1 mm 1 m/S 736 mmHg 83%
    05:00 +19°C° 0.1 mm 1 m/S 736 mmHg 80%
    06:00 +20°C° 0.1 mm 1 m/S 736 mmHg 77%
    07:00 +22°C° 0.1 mm 1 m/S 736 mmHg 74%
    08:00 +23°C° 0.6 mm 1 m/S 736 mmHg 72%
    09:00 +24°C° 0.6 mm 2 m/S 736 mmHg 70%
    10:00 +24°C° 0.6 mm 2 m/S 736 mmHg 68%
    11:00 +25°C° 1 mm 2 m/S 736 mmHg 69%
    12:00 +25°C° 1 mm 3 m/S 736 mmHg 69%
    13:00 +25°C° 1 mm 3 m/S 735 mmHg 70%
    14:00 +24°C° 0.5 mm 2 m/S 735 mmHg 67%
    15:00 +24°C° 0.5 mm 2 m/S 735 mmHg 65%
    16:00 +24°C° 0.5 mm 2 m/S 735 mmHg 62%
    17:00 +23°C° 0 mm 2 m/S 735 mmHg 66%
    18:00 +21°C° 0 mm 1 m/S 735 mmHg 70%
    19:00 +20°C° 0 mm 1 m/S 735 mmHg 74%
    20:00 +19°C° 0 mm 1 m/S 735 mmHg 76%
    21:00 +18°C° 0 mm 1 m/S 735 mmHg 78%
    22:00 +16°C° 0 mm 1 m/S 736 mmHg 80%
    23:00 +16°C° 0 mm 1 m/S 736 mmHg 81%

    11 Juni, Donnerstag

    Zeit Temperatur Niederschläge Wind Luftdruck Luftfeuchtigkeit
    00:00 +16°C° 0 mm 1 m/S 735 mmHg 81%
    01:00 +15°C° 0 mm 1 m/S 735 mmHg 81%
    02:00 +15°C° 0 mm 1 m/S 735 mmHg 82%
    03:00 +15°C° 0 mm 1 m/S 735 mmHg 82%
    04:00 +15°C° 0 mm 1 m/S 735 mmHg 82%
    05:00 +16°C° 0 mm 1 m/S 735 mmHg 78%
    06:00 +19°C° 0 mm 1 m/S 735 mmHg 73%
    07:00 +21°C° 0 mm 1 m/S 735 mmHg 69%
    08:00 +22°C° 0 mm 1 m/S 735 mmHg 66%
    09:00 +23°C° 0 mm 2 m/S 735 mmHg 63%
    10:00 +24°C° 0 mm 2 m/S 735 mmHg 60%
    11:00 +24°C° 0.1 mm 2 m/S 735 mmHg 59%
    12:00 +24°C° 0.1 mm 3 m/S 734 mmHg 59%
    13:00 +25°C° 0.1 mm 3 m/S 734 mmHg 59%
    14:00 +24°C° 0.1 mm 3 m/S 734 mmHg 61%
    15:00 +24°C° 0.1 mm 3 m/S 734 mmHg 63%
    16:00 +22°C° 0.1 mm 3 m/S 734 mmHg 65%
    17:00 +21°C° 0.1 mm 2 m/S 734 mmHg 71%
    18:00 +20°C° 0.1 mm 1 m/S 734 mmHg 78%
    19:00 +19°C° 0.1 mm 1 m/S 734 mmHg 84%
    20:00 +18°C° 0 mm 1 m/S 734 mmHg 84%
    21:00 +18°C° 0 mm 1 m/S 735 mmHg 84%
    22:00 +16°C° 0 mm 1 m/S 735 mmHg 84%
    23:00 +16°C° 0 mm 1 m/S 735 mmHg 84%

    12 Juni, Freitag

    Zeit Temperatur Niederschläge Wind Luftdruck Luftfeuchtigkeit
    00:00 +15°C° 0 mm 1 m/S 734 mmHg 83%
    01:00 +15°C° 0 mm 1 m/S 734 mmHg 83%
    02:00 +15°C° 0 mm 1 m/S 734 mmHg 83%
    03:00 +15°C° 0 mm 1 m/S 734 mmHg 83%
    04:00 +15°C° 0 mm 1 m/S 734 mmHg 84%
    05:00 +15°C° 0 mm 0 m/S 734 mmHg 79%
    06:00 +17°C° 0 mm 0 m/S 734 mmHg 75%
    07:00 +18°C° 0 mm 0 m/S 735 mmHg 71%
    08:00 +22°C° 0 mm 1 m/S 735 mmHg 68%
    09:00 +23°C° 0 mm 1 m/S 735 mmHg 65%
    10:00 +24°C° 0 mm 1 m/S 734 mmHg 62%
    11:00 +24°C° 0.2 mm 2 m/S 734 mmHg 63%
    12:00 +25°C° 0.2 mm 2 m/S 734 mmHg 63%
    13:00 +25°C° 0.2 mm 3 m/S 734 mmHg 64%
    14:00 +25°C° 0.2 mm 3 m/S 734 mmHg 66%
    15:00 +24°C° 0.2 mm 3 m/S 734 mmHg 67%
    16:00 +24°C° 0.2 mm 2 m/S 734 mmHg 69%
    17:00 +23°C° 0.2 mm 2 m/S 734 mmHg 75%
    18:00 +20°C° 0.2 mm 2 m/S 734 mmHg 80%
    19:00 +20°C° 0.2 mm 1 m/S 734 mmHg 86%
    20:00 +19°C° 0 mm 1 m/S 734 mmHg 87%
    21:00 +18°C° 0 mm 1 m/S 734 mmHg 88%
    22:00 +16°C° 0 mm 1 m/S 735 mmHg 88%
    23:00 +16°C° 0 mm 1 m/S 735 mmHg 88%
    Mehr zeigen